Regional Weather Roundup
Issued by NWS Jackson, KY

Home | Current Version | Previous Version | Graphics & Text | Print | Product List | Glossary On
Versions: 1 2 3 4 5 6 7 8 9 10 11 12 13 14 15 16 17 18 19 20 21 22 23 24 25 26 27 28 29 30 31 32 33 34 35 36 37 38 39 40 41 42 43 44 45 46 47 48 49 50
632
ASUS43 KJKL 290510
RWRJKL

EAST KENTUCKY HOURLY WEATHER ROUNDUP
NATIONAL WEATHER SERVICE JACKSON KY
100 AM EDT WED MAR 29 2017

NOTE: "FAIR" INDICATES FEW OR NO CLOUDS BELOW 12,000 FEET WITH
NO SIGNIFICANT WEATHER AND/OR OBSTRUCTIONS TO VISIBILITY.

* THESE REPORTS ARE NOT UNDER NWS QUALITY CONTROL AND MAY NOT
  REPORT WEATHER SUCH AS PRECIPITATION AND FOG.

KYZ079-080-083-085-087-088-110-112-115-119-120-290600
...EASTERN KENTUCKY...

CITY           SKY/WX    TMP DP  RH WIND       PRES   REMARKS
JACKSON        CLOUDY    56  52  86 VRB3      30.09S
LONDON         CLEAR     53  50  89 N3        30.08F
SOMERSET*      MOCLDY    54  50  87 E7        30.09F
MONTICELLO*    CLEAR     55  52  89 W8        30.10S
WILLIAMSBURG*  CLEAR     54  54 100 CALM      30.08F
MIDDLESBORO*   CLEAR     53  51  93 CALM      30.08S
HARLAN APT*    CLOUDY    57  50  77 CALM      30.08S
PIKE CO APT*   CLOUDY    55  55 100 N3        30.09S
BIG SANDY APT* CLOUDY    55  55 100 CALM      30.10S
MOREHEAD APT*  CLOUDY    54  48  82 N5        30.13S
ASHLAND*       CLOUDY    55  48  76 CALM      30.10S
$$

KYZ035-036-041-042-044-050-067-078-099-290600
...CENTRAL KENTUCKY...

CITY           SKY/WX    TMP DP  RH WIND       PRES   REMARKS
MT STERLING*   CLOUDY    54  50  87 NE7       30.13S
FLEMING/MASON* CLEAR     50  46  86 NE6       30.14S
DANVILLE*      CLOUDY    54  52  94 E5        30.11S
LEXINGTON      CLOUDY    52  48  86 N8        30.11S FOG
FRANKFORT      CLEAR     53  48  83 NE6       30.10S
LOUISVILLE     MOCLDY    56  47  71 NE8       30.10F
LEBANON*         N/A     55  54  94 NE7       30.10S
GLASGOW*       CLEAR     56  56 100 NE6       30.07F
BOWLING GREEN  CLOUDY    57  54  89 CALM      30.06F
$$

KYZ091>093-OHZ055-061-077-WVZ005-015-034-035-042-290600
...SOUTHERN OHIO/WEST VIRGINIA...

CITY           SKY/WX    TMP DP  RH WIND       PRES   REMARKS
COVINGTON      CLOUDY    52  47  83 NE10      30.13F
COLUMBUS       CLOUDY    46  40  79 NE6       30.17R
DAYTON         DRIZZLE   47  43  86 NE10      30.17S
WILMINGTON     CLOUDY    46  43  89 NE12      30.15S
HUNTINGTON     CLOUDY    56  50  80 N7        30.10S
CHARLESTON     CLOUDY    57  48  72 NW8       30.09R
PINEVILLE*     CLOUDY    55  52  89 MISG      30.13S FOG
BECKLEY        CLOUDY    52  50  93 N8        30.08S FOG
LOGAN CO APT*  CLOUDY    55  52  88 CALM      30.09S
$$

VAZ002-007-008-TNZ017-027-036-066-071-290600
...SOUTHWEST VIRGINIA/EAST TENNESSEE...

CITY           SKY/WX    TMP DP  RH WIND       PRES   REMARKS
WISE*          CLOUDY    54  50  87 CALM      30.10F
JONESVILLE*    CLOUDY    55  54  94 CALM      30.09S
ABINGDON*      MOCLDY    59  51  74 CALM      30.08S
BRISTOL        MOCLDY    57  50  77 CALM      30.06F
MORRISTOWN*    MOCLDY    55  54  94 SW3       30.05S
SEVIERVILLE*   CLEAR     54  50  87 CALM      30.05S
KNOXVILLE      PTCLDY    58  49  72 CALM      30.04F
LAFOLLETTE*    CLEAR     52  50  93 CALM      30.09F
OAK RIDGE      CLEAR     54  49  83 CALM      30.06F
CROSSVILLE     CLEAR     53  48  83 CALM      30.08S
NASHVILLE      CLEAR     57  53  86 NE5       30.06S
$$

...KEY TO REMARKS...
VSB - VISIBILITY IN MILES
WCI - WIND CHILL INDEX
HX  - HEAT INDEX

$$




USA.gov is the U.S. government's official web portal to all federal, state and local government web resources and services.